Date,TemperatureHighF,TemperatureAvgF,TemperatureLowF,DewpointHighF,DewpointAvgF,DewpointLowF,HumidityHigh,HumidityAvg,HumidityLow,PressureMaxIn,PressureMinIn,WindSpeedMaxMPH,WindSpeedAvgMPH,GustSpeedMaxMPH,PrecipitationSumIn
2013-1-1,36.4,36.3,36.1,30.0,29.9,29.7,78,77,77,29.94,29.92,8,4,8,0.00
2013-1-2,21.0,20.5,20.2,14.7,14.5,14.4,78,78,77,30.09,30.08,4,2,4,0.00
2013-1-3,19.7,19.3,19.1,14.7,14.6,14.5,82,82,81,30.21,30.21,1,0,1,0.00
2013-1-4,30.9,30.6,30.5,23.6,23.2,22.8,75,74,72,30.11,30.11,5,3,5,0.00
2013-1-5,35.1,34.8,34.7,24.4,24.2,23.9,65,65,65,30.33,30.31,10,9,10,0.00
2013-1-6,32.4,31.7,31.3,29.3,28.9,28.7,90,90,89,30.12,30.11,4,2,4,0.00
2013-1-7,38.4,37.7,36.9,31.3,30.8,30.4,77,76,75,30.30,30.28,5,2,5,0.00
2013-1-8,28.3,27.9,27.8,25.0,24.8,24.7,88,88,87,30.42,30.41,1,1,1,0.00
2013-1-9,26.9,26.1,25.4,26.0,25.3,24.4,97,97,96,30.40,30.39,1,1,1,0.00
2013-1-10,37.4,37.2,37.0,27.8,27.6,27.3,68,68,68,30.49,30.49,10,8,10,0.00
2013-1-11,33.7,33.3,33.0,28.7,28.5,28.1,83,82,82,30.47,30.45,1,0,1,0.00
2013-1-12,37.6,37.6,37.6,37.1,37.1,37.1,98,98,98,30.16,30.16,1,1,1,0.00
2013-1-13,43.7,43.7,43.7,43.4,43.4,43.4,99,99,99,30.14,30.14,2,2,2,0.00
2013-1-14,47.9,47.7,47.7,47.4,47.4,47.4,99,99,99,30.08,30.08,2,2,2,0.01
2013-1-15,33.9,33.8,33.8,29.3,29.2,29.2,83,83,83,30.35,30.34,4,3,4,0.09
2013-1-18,40.8,27.1,23.4,27.7,15.6,7.0,80,62,42,30.48,30.21,5,2,13,0.00
2013-1-19,48.3,40.9,33.2,32.2,28.9,26.7,78,63,43,30.21,29.75,3,2,17,0.01
2013-1-20,50.1,31.0,19.7,32.2,15.0,9.8,67,52,31,30.11,29.74,8,2,22,0.01
2013-1-21,28.8,22.7,14.1,19.9,10.8,-2.7,87,60,42,30.12,29.89,7,2,22,0.00
2013-1-22,17.6,12.5,7.3,1.9,-2.1,-5.4,71,52,38,30.29,30.08,6,3,22,0.00
2013-1-23,19.0,10.8,5.7,6.5,2.4,-2.7,89,70,40,30.30,30.16,5,1,16,0.00
2013-1-24,21.1,20.3,19.9,4.6,4.0,2.8,50,49,46,30.29,30.29,14,9,14,0.00
2013-1-25,11.9,11.4,11.1,4.0,3.5,3.2,70,70,69,30.44,30.42,4,2,4,0.00
2013-1-26,23.3,23.3,23.2,8.2,8.2,8.2,52,52,52,30.19,30.19,15,13,15,0.00
2013-1-27,32.2,29.1,25.5,16.2,14.3,12.8,60,54,45,30.49,30.42,3,1,9,0.00
2013-1-28,26.1,25.9,25.8,23.4,22.9,22.5,90,88,86,30.34,30.33,5,3,5,0.00
2013-1-29,49.8,44.6,35.3,45.3,42.5,34.5,98,93,84,30.07,29.82,2,0,6,0.18
2013-1-30,40.4,40.3,40.2,39.9,39.8,39.6,98,98,98,29.82,29.80,2,1,2,0.00
2013-1-31,41.9,41.3,40.7,32.5,31.4,29.8,69,68,65,29.27,29.24,21,17,21,1.64
2013-2-1,27.1,26.4,25.9,10.5,9.8,8.4,51,49,47,29.86,29.86,18,10,18,0.00
2013-2-2,14.9,14.5,14.2,6.5,6.3,6.0,71,70,68,30.25,30.24,6,2,6,0.00
2013-2-3,20.4,18.6,17.7,18.1,16.8,16.0,93,93,92,29.91,29.90,1,0,1,0.00
2013-2-4,27.5,24.8,22.3,21.6,15.6,10.3,92,69,51,29.93,29.85,5,1,13,0.00
2013-2-5,28.0,27.9,27.9,26.7,26.7,26.7,95,95,95,29.87,29.87,1,1,1,0.00
2013-2-6,28.7,27.5,26.3,25.9,25.6,25.1,96,92,87,30.03,30.02,6,1,6,0.00
2013-2-7,19.7,19.6,19.6,13.0,12.8,12.7,75,74,74,30.43,30.43,0,0,0,0.00
2013-2-8,32.0,32.0,32.0,29.4,29.4,29.4,90,90,90,30.01,30.01,5,5,5,0.00
2013-2-9,23.3,23.2,23.1,17.9,17.8,17.4,80,80,79,29.97,29.96,8,4,8,0.00
2013-2-10,15.1,12.7,11.0,11.2,10.0,8.9,91,89,85,30.42,30.42,1,0,1,0.00
2013-2-11,33.3,33.0,32.9,32.0,31.7,31.6,95,95,95,30.00,29.99,1,0,1,0.00
2013-2-12,38.3,38.3,38.3,26.4,26.4,26.0,62,62,62,29.83,29.83,12,8,12,0.01
2013-2-13,30.2,29.6,29.0,25.6,25.2,24.3,85,83,82,29.83,29.82,2,1,2,0.00
2013-2-14,29.3,28.9,28.7,28.6,28.2,28.0,97,97,97,29.88,29.86,1,1,1,0.00
2013-2-15,31.7,30.8,30.3,29.0,28.3,27.7,91,90,90,29.94,29.93,4,2,4,0.00
2013-2-16,33.9,27.9,21.4,26.6,15.0,6.9,77,59,43,29.88,29.70,7,4,23,0.04
2013-2-17,28.7,24.7,20.1,10.3,7.7,4.2,57,48,41,29.91,29.74,17,8,23,0.00
2013-2-18,14.6,14.4,14.3,4.2,4.1,3.8,63,63,63,30.21,30.21,7,6,7,0.00
2013-2-19,31.6,28.1,26.0,23.2,21.6,19.4,80,76,71,29.98,29.95,5,2,5,0.00
2013-2-20,28.4,24.8,22.2,15.9,13.0,10.8,68,61,52,30.00,29.83,12,4,20,0.00
2013-2-21,23.9,23.5,23.2,14.2,13.7,13.3,66,66,65,30.01,30.00,15,8,15,0.00
2013-2-22,27.7,24.7,23.2,20.3,18.6,17.4,79,77,74,30.34,30.32,6,3,6,0.00
2013-2-23,40.6,37.0,33.2,39.8,36.4,32.7,98,98,97,30.01,29.74,5,1,8,0.13
2013-2-24,33.0,33.0,33.0,32.5,32.5,32.5,98,98,98,29.75,29.75,1,1,1,0.00
2013-2-25,32.9,32.7,32.6,27.5,27.5,27.3,81,81,81,30.08,30.08,1,1,1,0.00
2013-2-26,27.2,26.6,26.1,25.9,25.5,25.1,96,96,95,30.21,30.20,1,0,1,0.00
2013-2-27,43.2,43.1,43.1,40.9,40.9,40.9,92,92,92,29.48,29.48,20,20,20,0.15
2013-2-28,44.5,37.1,30.7,35.0,31.3,28.7,95,80,60,29.65,29.51,8,1,11,0.01
2013-3-1,34.6,34.4,34.4,29.6,29.4,29.2,82,81,81,29.66,29.65,4,1,4,0.00
2013-3-2,31.7,31.2,30.5,24.1,23.7,23.3,75,73,72,29.77,29.76,8,3,8,0.00
2013-3-3,28.1,28.0,27.8,19.6,19.1,18.5,71,69,67,29.72,29.72,16,12,16,0.00
2013-3-4,28.2,28.0,27.9,18.9,18.5,18.4,68,67,67,29.82,29.82,13,10,13,0.00
2013-3-5,32.9,31.9,31.2,24.1,23.5,23.1,72,71,69,29.97,29.97,13,8,13,0.00
2013-3-6,38.9,37.0,34.2,36.4,29.7,25.4,94,75,67,29.96,29.79,17,4,23,0.05
2013-3-7,34.4,34.3,34.2,25.9,25.6,25.4,71,70,70,29.96,29.96,8,7,8,0.00
2013-3-8,29.4,29.2,29.2,27.5,27.5,27.3,93,93,93,30.03,30.03,8,6,8,0.00
2013-3-9,38.9,37.8,36.8,26.4,25.5,24.8,63,61,59,30.25,30.23,8,4,8,0.00
2013-3-10,28.5,28.1,27.8,24.8,24.2,23.8,87,85,84,30.30,30.29,1,0,1,0.00
2013-3-11,38.6,38.5,38.5,37.8,37.7,37.7,97,97,97,30.16,30.16,5,2,5,0.00
2013-3-12,52.4,52.4,52.4,51.0,50.9,50.7,95,94,94,29.79,29.79,12,10,12,0.14
2013-3-13,34.6,34.3,34.3,28.2,28.2,28.2,78,78,78,29.84,29.84,4,2,4,0.00
2013-3-14,36.7,36.6,36.6,15.1,14.5,13.9,41,40,39,29.88,29.87,14,14,14,0.00
2013-3-15,45.3,39.9,27.8,32.0,26.9,16.1,74,60,50,29.93,29.67,4,2,13,0.00
2013-3-16,31.8,31.3,31.0,22.7,22.6,22.4,71,70,68,29.77,29.77,2,1,2,0.00
2013-3-17,31.0,29.7,27.5,21.3,20.4,18.9,76,68,62,30.10,30.07,7,3,7,0.00
2013-3-18,29.2,28.0,27.1,14.9,13.9,12.7,59,55,52,30.33,30.31,12,4,12,0.00
2013-3-19,40.1,37.5,32.9,36.1,34.9,32.1,98,90,84,29.74,29.67,4,1,5,0.14
2013-3-20,33.2,31.9,30.8,20.9,20.4,20.0,64,62,60,29.84,29.84,8,5,8,0.00
2013-3-21,29.6,28.9,28.1,16.6,15.6,15.0,59,57,55,29.73,29.72,9,6,9,0.00
2013-3-22,28.5,26.9,25.0,20.3,19.8,19.1,78,74,71,29.77,29.76,8,5,8,0.00
2013-3-23,32.2,31.5,31.1,22.0,21.6,21.3,67,66,66,29.87,29.87,7,4,7,0.00
2013-3-24,27.5,27.3,27.3,19.1,18.9,18.8,71,70,70,29.91,29.91,1,1,1,0.00
2013-3-25,34.6,34.5,34.3,27.5,27.0,26.7,76,74,73,29.56,29.55,9,5,9,0.00
2013-3-26,41.2,40.8,40.3,34.0,33.7,33.0,78,76,74,29.72,29.71,6,3,6,0.00
2013-3-27,50.2,47.5,42.9,34.4,28.2,24.3,69,48,38,29.85,29.80,10,4,19,0.00
2013-3-28,36.9,35.4,34.9,30.5,30.3,29.6,83,82,80,29.93,29.92,4,1,4,0.00
2013-3-29,51.4,43.3,32.9,32.7,30.5,27.4,85,62,42,30.07,30.00,5,2,15,0.00
2013-3-30,32.3,32.1,31.9,28.7,28.5,28.3,87,86,85,30.07,30.06,1,1,1,0.00
2013-3-31,37.8,35.6,34.6,30.3,28.4,27.4,75,75,74,29.97,29.96,1,0,1,0.00
2013-4-1,43.7,43.3,43.1,42.7,42.5,42.3,97,97,97,29.60,29.60,4,2,4,0.01
2013-4-4,54.0,43.8,34.9,30.7,24.9,20.2,74,49,29,30.26,29.76,3,1,9,0.00
2013-4-5,60.4,44.8,30.4,29.5,21.2,13.0,61,41,21,30.21,29.66,7,4,19,0.00
2013-4-6,54.7,43.6,37.4,32.1,21.8,12.6,70,45,20,30.21,30.09,3,2,13,0.00
2013-4-7,62.6,55.1,44.8,45.4,40.8,28.9,86,60,38,30.09,29.87,3,2,13,0.00
2013-4-8,77.0,67.5,59.7,54.1,48.6,40.2,74,53,30,29.97,29.81,6,2,17,0.00
2013-4-9,81.4,70.3,57.2,53.7,47.1,37.2,76,48,21,29.88,29.72,7,2,16,0.00
2013-4-10,73.8,72.6,71.2,55.4,54.7,53.8,56,54,51,29.80,29.79,5,3,5,0.00
2013-4-11,56.7,56.1,55.6,53.2,52.0,51.3,88,86,85,29.84,29.81,12,4,12,0.00
2013-4-12,42.4,42.0,41.2,40.7,40.2,39.3,94,93,93,29.74,29.71,13,8,13,1.17
2013-4-13,56.9,54.6,49.6,39.5,36.7,34.4,59,51,44,29.81,29.76,4,2,13,0.01
2013-4-14,48.0,46.6,44.8,37.9,36.9,36.3,73,69,65,29.97,29.95,10,3,10,0.00
2013-4-15,45.6,45.2,45.1,32.8,32.3,31.3,62,61,58,30.23,30.23,4,3,4,0.00
2013-4-16,69.7,62.2,51.6,57.4,54.6,45.9,94,77,64,30.22,30.00,4,2,16,0.03
2013-4-17,52.6,52.5,52.4,45.9,44.8,43.3,78,75,72,30.13,30.12,14,7,14,0.03
2013-4-18,52.4,52.2,52.2,45.5,45.5,45.3,78,78,77,30.19,30.18,8,6,8,0.00
2013-4-19,76.0,61.2,45.6,65.5,55.4,37.4,95,82,68,29.78,29.47,15,2,17,0.07
2013-4-20,45.7,45.5,45.3,38.3,37.7,36.6,76,74,72,29.80,29.79,7,4,7,0.07
2013-4-21,37.1,36.8,36.7,23.7,23.4,22.7,59,58,57,30.45,30.45,12,8,12,0.00
2013-4-22,44.8,43.3,42.4,35.6,34.8,34.4,73,72,69,30.26,30.23,3,3,11,0.00
2013-4-23,41.9,41.8,41.7,33.8,33.8,33.3,73,73,73,30.27,30.26,10,10,10,0.00
2013-4-24,47.6,46.9,46.8,43.4,43.2,43.0,87,87,87,29.97,29.97,2,2,2,0.00
2013-4-25,45.9,44.5,43.5,31.2,30.7,30.0,60,58,55,30.09,30.09,12,8,12,0.00
2013-4-26,49.5,49.5,49.5,37.4,37.4,37.4,63,63,63,30.31,30.31,13,13,13,0.00
2013-4-29,58.8,55.0,51.1,52.7,50.8,49.4,94,86,75,30.17,30.16,2,1,12,0.00
2013-4-30,50.9,50.9,50.9,49.2,49.2,49.2,94,94,94,30.15,30.15,4,4,4,0.00
2013-5-1,46.8,44.8,43.2,34.2,33.5,32.8,70,65,59,30.33,30.32,6,3,6,0.00
2013-5-2,49.9,48.2,47.3,44.9,43.9,42.8,86,85,82,30.35,30.34,4,2,4,0.00
2013-5-3,66.8,54.0,38.7,42.5,38.9,33.7,97,62,30,30.31,30.20,3,1,15,0.00
2013-5-4,43.4,41.1,40.1,42.2,40.3,39.3,97,97,96,30.21,30.21,2,0,2,0.00
2013-5-10,59.9,59.8,59.8,58.4,58.4,58.4,95,95,95,29.90,29.90,1,1,1,0.01
2013-5-11,64.3,64.1,64.1,62.7,62.6,62.6,95,95,95,29.69,29.68,5,4,5,0.33
2013-5-12,59.1,58.8,58.6,50.1,49.5,48.8,73,71,70,29.63,29.63,4,3,4,0.00
2013-5-13,49.4,49.3,49.3,31.4,31.4,31.4,50,50,50,29.95,29.95,8,8,8,0.00
2013-5-14,54.5,54.5,54.5,26.7,26.7,26.7,34,34,34,30.01,30.01,8,8,8,0.00
2013-5-15,75.9,64.7,54.4,60.5,56.2,48.2,97,76,56,29.84,29.58,2,1,10,0.00
2013-5-16,60.9,59.9,59.5,59.3,58.7,58.4,96,96,95,29.72,29.71,2,0,2,0.00
2013-5-19,63.6,60.9,58.8,61.5,59.8,58.0,98,96,93,30.01,30.00,1,0,4,0.00
2013-5-20,58.9,58.9,58.9,58.3,58.3,58.3,98,98,98,30.01,30.01,1,1,1,0.00
2013-5-21,88.6,76.2,66.5,74.3,69.3,65.6,97,81,57,29.84,29.73,2,0,9,0.00
2013-5-22,71.8,71.7,71.5,69.0,68.9,68.5,91,91,90,29.78,29.78,4,3,4,0.00
2013-5-23,69.5,69.2,68.9,67.1,66.8,66.5,93,92,91,29.77,29.76,1,1,1,0.02
2013-5-24,53.6,53.2,52.6,51.0,50.5,49.6,91,91,90,29.70,29.69,12,8,12,0.05
2013-5-25,47.0,47.0,47.0,40.8,40.7,40.1,79,79,78,29.90,29.90,12,12,12,0.06
2013-5-26,53.1,53.0,53.0,40.3,40.2,40.0,62,62,61,29.98,29.98,12,10,12,0.00
2013-5-27,56.7,56.6,56.6,42.9,42.8,41.6,60,60,59,30.16,30.16,4,4,4,0.00
2013-5-28,57.5,56.7,55.6,55.2,54.5,52.9,94,92,89,30.11,30.04,4,1,5,0.17
2013-5-29,58.8,58.8,58.8,58.2,58.2,58.2,98,98,98,29.99,29.99,1,1,1,0.00
2013-5-30,79.3,78.6,77.4,70.2,69.9,69.0,76,75,74,30.03,30.03,4,1,4,0.00
2013-5-31,82.2,80.0,77.9,72.5,71.7,70.8,80,76,71,30.01,30.01,1,0,1,0.00
2013-6-1,78.8,78.8,78.8,69.8,69.8,69.4,74,74,74,29.91,29.91,5,5,5,0.00
2013-6-2,78.3,78.1,78.1,69.1,69.0,68.7,74,74,73,29.74,29.74,4,3,4,0.00
2013-6-3,65.5,65.5,65.5,63.1,63.1,63.1,92,92,92,29.75,29.75,4,4,4,0.32
2013-6-4,60.4,59.9,59.5,45.7,45.0,43.8,60,58,56,29.94,29.93,14,7,14,0.00
2013-6-5,57.2,57.2,57.1,46.3,46.2,46.1,67,67,67,30.10,30.10,4,4,4,0.00
2013-6-6,64.1,61.6,56.1,57.6,55.6,52.3,88,81,77,30.00,29.98,8,2,8,0.00
2013-6-7,60.7,60.7,60.7,59.8,59.8,59.8,97,97,97,29.75,29.75,5,4,5,0.60
2013-6-8,63.4,63.4,63.4,62.2,62.2,62.2,96,96,96,29.74,29.74,4,4,4,0.00
2013-6-9,68.3,68.1,68.1,61.7,61.7,61.4,80,80,80,30.07,30.07,4,4,4,0.00
2013-6-10,63.1,63.1,63.1,61.9,61.9,61.9,96,96,96,30.00,30.00,1,1,0,0.36
2013-6-11,67.4,67.3,67.3,66.4,66.4,66.4,97,97,97,29.66,29.65,2,2,2,0.02
2013-6-12,66.8,66.8,66.8,56.7,56.7,56.7,70,70,70,29.73,29.73,8,8,8,0.00
2013-6-13,66.3,59.1,53.6,62.5,57.3,51.0,97,94,87,29.61,29.32,3,2,14,0.12
2013-6-14,55.2,54.5,53.9,51.7,51.4,51.1,91,89,88,29.66,29.61,7,3,7,0.12
2013-6-15,66.5,66.5,66.4,58.3,58.3,58.2,75,75,75,29.88,29.88,1,1,1,0.00
2013-6-16,82.4,78.8,74.6,67.4,64.2,59.3,71,61,48,29.81,29.69,5,1,12,0.00
2013-6-17,73.1,73.0,73.0,67.5,67.2,66.6,83,82,81,29.82,29.81,4,3,4,0.00
2013-6-18,80.5,75.5,71.7,70.6,67.2,64.5,81,76,69,29.78,29.75,4,2,4,0.00
2013-6-19,59.7,59.6,59.4,56.6,56.4,56.2,90,89,89,29.89,29.88,4,1,4,0.01
2013-6-20,66.0,63.0,59.6,59.3,57.3,56.3,89,82,77,30.15,29.89,4,2,4,0.00
2013-6-21,68.3,67.5,67.3,57.4,56.8,56.3,70,68,68,30.19,30.18,0,0,0,0.00
2013-6-22,86.4,82.4,75.1,69.5,68.2,66.6,76,63,54,30.14,30.00,2,1,7,0.00
2013-6-23,71.3,70.2,69.8,66.8,66.8,66.5,90,89,87,30.07,30.07,2,2,2,0.00
2013-6-24,85.0,83.3,81.9,73.4,72.8,71.9,74,71,67,29.97,29.97,2,1,2,0.00
2013-6-25,82.7,81.2,72.6,72.3,71.9,69.2,91,74,71,29.97,29.85,5,1,1,0.02
2013-6-26,72.8,71.8,71.1,68.0,67.6,67.2,88,87,84,29.75,29.74,2,1,2,0.00
2013-6-27,68.0,67.7,67.7,66.8,66.8,66.8,97,97,97,29.70,29.70,1,1,1,0.00
2013-6-28,85.0,82.9,78.7,72.3,70.8,69.4,78,67,61,29.43,29.39,2,1,9,0.00
2013-6-29,68.7,68.0,67.8,67.1,66.5,66.3,95,95,95,29.47,29.46,2,1,3,0.00
2013-6-30,81.0,80.9,80.8,74.2,74.1,73.8,80,80,80,29.68,29.68,5,5,5,0.00
2013-7-1,73.4,73.3,73.2,72.2,72.0,71.5,96,96,95,29.83,29.83,1,1,1,1.40
2013-7-2,83.7,80.8,78.4,77.1,75.1,73.6,87,83,77,30.01,29.99,5,1,6,0.00
2013-7-3,78.1,78.1,78.0,73.2,73.2,72.8,85,85,85,30.12,30.12,4,4,4,0.00
2013-7-4,75.8,75.5,75.1,74.9,74.6,74.2,97,97,97,30.13,30.13,2,1,2,0.00
2013-7-5,92.9,92.8,92.7,75.8,75.2,73.9,58,57,56,30.02,30.02,4,4,4,0.00
2013-7-6,79.5,79.1,79.1,74.9,74.9,74.5,87,87,87,30.04,30.04,2,2,2,0.00
2013-7-7,80.8,80.5,80.1,74.8,74.4,73.7,84,82,81,29.94,29.93,2,2,2,0.00
2013-7-8,74.5,74.5,74.5,71.0,70.8,70.4,89,88,87,29.94,29.94,2,2,2,0.00
2013-7-9,77.7,76.9,76.6,70.1,69.4,68.5,80,78,76,29.97,29.96,0,0,0,0.00
2013-7-10,77.2,77.1,77.1,74.6,74.5,74.4,92,92,91,29.83,29.83,1,1,1,0.00
2013-7-11,72.7,72.2,72.0,70.6,70.1,69.9,93,93,93,29.75,29.75,0,0,0,0.00
2013-7-12,76.7,70.4,66.1,70.1,67.6,65.2,98,91,76,30.11,29.91,3,1,9,0.03
2013-7-13,84.6,75.8,71.0,77.4,73.5,69.2,98,93,79,30.24,30.10,2,0,8,0.01
2013-7-14,91.8,85.3,76.8,77.9,73.7,71.5,85,69,54,30.23,30.14,2,1,7,0.01
2013-7-15,89.0,89.0,88.9,75.7,75.5,75.1,65,65,64,30.12,30.12,4,3,4,0.00
2013-7-16,79.2,79.1,79.1,70.9,70.5,70.1,76,75,74,30.12,30.12,4,3,4,0.00
2013-7-17,71.0,70.7,70.6,70.0,69.8,69.7,97,97,97,30.10,30.10,1,1,1,0.00
2013-7-18,87.8,87.6,87.3,76.4,76.3,76.2,70,69,69,29.97,29.96,0,0,0,0.00
2013-7-19,87.8,87.5,87.4,78.3,77.8,76.5,74,73,72,29.86,29.85,1,1,3,0.00
2013-7-20,75.8,75.8,75.8,71.0,71.0,71.0,85,85,85,29.69,29.69,5,5,5,0.00
2013-7-21,71.0,70.9,70.9,70.1,70.0,70.0,97,97,97,29.79,29.79,2,2,2,0.00
2013-7-22,73.0,71.9,71.4,69.0,68.4,67.9,90,89,87,29.84,29.83,4,2,4,0.00
2013-7-23,71.8,71.3,70.9,71.0,70.6,70.3,98,98,97,29.58,29.57,2,1,3,0.60
2013-7-24,73.3,72.1,71.7,65.8,65.4,64.6,81,79,77,29.68,29.66,9,4,9,0.00
2013-7-25,59.9,59.8,59.8,51.9,51.9,51.9,75,75,75,29.91,29.91,8,8,8,0.00
2013-7-26,65.1,65.0,64.9,61.0,60.8,60.4,87,86,85,29.94,29.94,4,2,4,0.00
2013-7-27,77.0,76.8,76.7,68.6,68.3,67.6,76,75,74,29.94,29.94,4,2,2,0.00
2013-7-28,77.9,74.1,69.3,72.3,70.9,67.8,96,90,82,29.83,29.81,6,2,7,0.48
2013-7-29,79.8,78.0,75.3,67.3,61.0,55.8,74,57,45,29.94,29.93,8,2,8,0.01
2013-7-30,69.7,68.2,67.7,61.8,60.0,59.1,78,75,73,30.09,30.08,1,0,1,0.00
2013-7-31,80.3,71.5,64.3,65.5,63.5,61.3,91,77,59,30.06,30.03,4,1,4,0.00
2013-8-1,67.8,67.7,67.7,65.6,65.5,65.3,93,92,92,29.83,29.83,4,3,4,0.01
2013-8-2,72.5,71.3,70.2,67.8,66.2,65.0,92,84,78,29.81,29.80,4,1,4,0.01
2013-8-3,63.5,63.3,63.0,62.0,61.8,61.5,95,95,95,29.82,29.81,1,0,1,0.11
2013-8-4,58.5,58.1,57.9,57.9,57.5,57.3,98,98,98,29.81,29.81,1,0,1,0.00
2013-8-5,64.5,63.6,62.9,56.8,55.7,54.6,78,75,73,29.98,29.97,5,1,5,0.00
2013-8-6,60.7,59.2,58.2,57.8,57.0,56.3,94,92,89,29.98,29.98,4,3,4,0.00
2013-8-7,76.2,74.1,72.5,69.2,67.8,66.7,82,81,78,30.00,29.98,8,2,11,0.03
2013-8-8,69.9,69.4,69.0,69.0,68.6,68.1,97,97,97,29.94,29.93,2,1,2,0.10
2013-8-9,73.5,73.4,73.3,72.6,72.5,72.4,97,97,97,29.78,29.77,4,1,4,0.44
2013-8-10,67.3,64.8,64.2,66.6,64.3,63.6,99,98,98,29.90,29.89,1,0,1,0.00
2013-8-11,59.9,59.6,59.4,57.8,57.8,57.7,94,94,93,30.02,30.01,2,2,2,0.00
2013-8-12,66.4,66.4,66.3,65.8,65.6,65.4,98,98,97,29.92,29.92,2,1,2,0.11
2013-8-13,68.9,68.8,68.6,68.0,67.9,67.7,97,97,97,29.73,29.72,2,0,2,1.95
2013-8-14,58.4,58.0,57.8,50.7,50.5,50.1,76,76,76,29.77,29.77,6,5,6,0.00
2013-8-15,63.5,63.5,63.5,53.9,53.9,53.8,71,71,71,30.05,30.05,1,1,1,0.00
2013-8-16,53.2,52.5,52.4,51.7,51.7,51.6,97,97,97,30.07,30.07,0,0,0,0.00
2013-8-17,79.9,67.9,59.6,65.2,60.6,57.6,96,79,51,30.17,30.12,2,0,5,0.02
2013-8-18,71.9,69.4,64.6,66.5,65.0,63.1,95,86,79,30.16,30.04,1,0,4,0.04
2013-8-19,61.6,61.6,61.6,60.7,60.7,60.7,97,97,97,30.03,30.03,1,0,1,0.00
2013-8-20,80.8,78.8,77.2,69.2,68.0,65.5,75,70,60,30.04,30.02,4,2,4,0.00
2013-8-21,83.8,79.2,74.8,69.4,68.1,64.9,82,69,60,30.09,30.07,4,1,4,0.00
2013-8-25,74.1,69.8,65.5,63.7,62.2,60.2,83,77,70,30.07,30.05,1,0,6,0.00
2013-8-26,64.1,64.0,63.9,60.2,59.9,59.6,87,87,86,30.08,30.08,1,1,1,0.00
2013-8-27,72.2,71.4,70.8,67.3,67.0,66.7,87,86,85,29.80,29.79,6,4,6,0.01
2013-8-28,68.5,68.0,67.6,67.9,67.3,67.0,98,98,97,29.77,29.76,4,0,4,0.00
2013-8-29,67.7,67.7,67.7,67.1,67.1,67.1,98,98,98,29.88,29.88,5,4,5,0.00
2013-8-30,70.9,70.9,70.9,68.8,68.7,68.5,93,93,92,29.90,29.90,2,2,2,0.00
2013-8-31,76.4,76.3,76.2,71.9,71.8,71.7,86,86,86,29.75,29.75,2,2,2,0.00
2013-9-1,73.0,72.7,72.5,71.8,71.7,71.5,97,97,96,29.73,29.73,4,1,4,0.00
2013-9-2,69.0,68.3,67.5,68.3,67.6,66.6,98,98,97,29.68,29.66,7,1,7,5.72
2013-9-3,67.4,67.3,67.2,67.1,67.0,66.6,99,99,98,29.69,29.68,1,1,1,0.00
2013-9-4,63.2,62.2,61.8,59.6,59.3,59.1,91,90,89,29.92,29.92,2,2,3,0.00
2013-9-5,63.1,62.5,62.3,58.8,58.7,58.5,88,87,87,29.88,29.88,4,0,4,0.00
2013-9-6,64.8,63.1,60.1,46.7,45.5,43.1,61,53,47,30.17,30.14,5,2,8,0.00
2013-9-7,60.6,56.4,54.7,55.0,52.8,51.1,90,88,84,30.00,30.00,1,1,1,0.00
2013-9-8,70.8,70.7,70.6,50.7,50.4,49.2,49,49,48,29.85,29.85,7,6,7,0.00
2013-9-9,46.7,45.2,45.0,45.2,44.4,43.8,97,97,96,30.12,30.11,1,0,1,0.00
2013-9-10,73.1,73.0,73.0,69.9,69.8,69.7,90,90,89,30.05,30.05,1,1,1,0.00
2013-9-11,84.3,83.9,83.9,76.7,76.7,76.7,79,79,79,30.00,30.00,5,5,5,0.00
2013-9-12,72.1,72.0,72.0,70.9,70.8,70.8,96,96,96,29.81,29.81,2,1,2,0.00
2013-9-13,65.2,63.3,62.2,63.7,61.9,60.8,97,96,93,29.60,29.58,4,1,4,0.07
2013-9-14,53.1,51.7,51.1,46.5,46.1,45.8,82,81,78,29.88,29.88,7,3,7,0.00
2013-9-15,48.4,44.7,43.5,47.5,44.0,42.7,98,97,97,30.12,30.11,0,0,0,0.00
2013-9-16,57.6,57.6,57.6,56.8,56.8,56.8,97,97,97,29.98,29.98,2,2,2,0.03
2013-9-17,58.9,57.2,54.0,44.3,42.6,41.3,63,58,55,30.34,30.30,7,3,13,0.00
2013-9-18,41.2,40.7,40.4,40.4,39.9,39.6,97,97,97,30.25,30.25,1,0,1,0.00
2013-9-19,73.8,69.6,64.8,57.2,54.4,51.8,74,59,50,30.08,29.98,4,1,6,0.00
2013-9-20,45.9,45.9,45.8,45.4,45.4,45.3,98,98,98,29.99,29.99,0,0,0,0.00
2013-9-21,60.1,59.4,59.4,58.5,58.5,58.5,97,97,97,29.81,29.81,4,4,4,0.00
2013-9-22,57.2,56.0,55.3,52.1,51.6,51.2,86,85,83,29.68,29.68,4,3,4,0.16
2013-9-23,61.9,51.2,40.3,46.0,43.0,38.7,95,75,54,29.98,29.89,3,1,15,0.00
2013-9-24,41.2,41.0,40.7,40.0,39.7,39.4,96,95,95,29.98,29.98,0,0,0,0.00
2013-9-25,44.2,44.1,44.1,43.3,43.3,43.3,97,97,97,29.88,29.88,1,1,1,0.00
2013-9-26,70.2,58.2,46.7,58.5,53.7,45.9,98,86,59,30.13,29.90,3,1,10,0.00
2013-9-27,69.0,58.8,52.4,55.1,53.1,51.0,96,83,57,30.23,30.08,3,0,7,0.00
2013-9-28,61.2,60.3,59.6,55.4,54.8,54.3,83,82,80,30.23,30.23,7,4,7,0.00
2013-9-29,69.2,57.6,44.7,59.1,52.4,43.9,98,84,59,30.10,29.97,2,0,6,0.01
2013-9-30,45.3,45.3,45.3,44.8,44.8,44.8,98,98,98,29.99,29.99,1,1,1,0.01
2013-10-1,77.6,65.4,55.0,63.7,57.7,52.7,96,77,52,29.92,29.82,3,0,9,0.01
2013-10-2,81.0,78.4,73.1,64.0,63.1,62.3,72,60,54,29.91,29.84,10,3,14,0.00
2013-10-3,74.0,71.2,64.9,60.9,58.3,55.9,87,64,54,30.03,29.99,2,1,5,0.00
2013-10-4,82.7,80.0,74.6,69.1,68.1,67.1,80,67,60,29.95,29.87,1,0,9,0.00
2013-10-5,76.0,75.0,72.2,68.3,67.6,66.4,83,78,75,29.98,29.95,5,2,5,0.00
2013-10-6,65.0,64.7,64.5,63.9,63.7,63.5,97,97,96,29.96,29.95,4,2,4,0.00
2013-10-7,68.7,68.7,68.7,66.9,66.9,66.9,94,94,94,29.76,29.76,8,7,8,0.00
2013-10-8,49.5,49.2,48.8,45.6,45.3,45.1,87,86,86,30.12,30.10,4,2,4,0.00
2013-10-9,46.4,45.8,45.3,44.7,44.4,44.2,96,95,94,30.30,30.30,6,3,6,0.00
2013-10-10,56.6,54.6,50.5,52.0,49.9,47.4,90,84,80,30.12,29.92,3,2,14,0.13
2013-10-11,56.6,56.0,55.6,50.5,50.2,49.9,82,81,79,29.95,29.94,7,3,7,0.00
2013-10-12,59.5,59.3,59.3,46.5,46.2,45.8,62,62,61,30.07,30.07,8,6,8,0.00
2013-10-28,46.1,43.8,42.0,33.0,32.2,31.8,67,64,60,30.32,30.31,2,2,9,0.00
2013-10-29,40.9,40.1,39.8,32.0,31.9,31.8,73,72,71,30.32,30.32,6,3,6,0.00
2013-10-30,42.2,42.2,42.1,37.7,37.7,37.6,84,84,84,30.19,30.19,1,1,1,0.00
2013-10-31,57.5,57.1,56.8,55.6,55.1,54.9,95,93,91,29.99,29.97,4,1,4,0.08
2013-11-1,67.4,67.3,66.9,63.9,63.8,63.6,90,89,88,29.45,29.42,14,8,14,0.13
2013-11-2,64.0,52.0,42.4,50.2,42.4,35.0,86,71,55,29.93,29.55,3,1,18,0.00
2013-11-3,42.6,42.3,42.2,35.1,34.9,34.6,75,75,75,29.95,29.94,12,7,12,0.00
2013-11-4,42.7,41.8,40.2,20.0,18.9,18.1,44,40,38,30.52,30.49,10,4,10,0.00
2013-11-5,56.5,49.6,45.6,47.8,42.6,38.4,90,77,59,30.51,30.21,2,0,9,0.00
2013-11-6,60.8,59.6,56.5,48.6,48.0,47.2,71,66,62,30.21,30.15,8,3,8,0.00
2013-11-7,57.2,41.5,31.6,55.8,36.5,26.9,95,83,73,29.96,29.69,5,1,14,0.01
2013-11-8,33.1,32.7,32.6,28.5,28.1,28.0,83,83,83,29.96,29.95,0,0,0,0.01
2013-11-9,35.7,34.5,33.5,29.8,29.2,28.7,83,81,79,30.21,30.19,2,1,2,0.00
2013-11-10,49.9,46.8,44.8,35.8,34.5,33.6,65,62,59,29.82,29.80,6,3,6,0.00
2013-11-11,38.7,37.9,37.4,29.7,29.5,29.2,72,71,70,30.13,30.12,2,1,2,0.00
2013-11-12,33.0,33.0,33.0,22.5,22.0,21.0,65,64,61,30.05,30.04,9,6,9,0.00
2013-11-13,25.7,25.5,25.3,15.6,15.3,15.0,65,65,64,30.31,30.30,8,5,8,0.00
2013-11-14,31.1,30.1,29.7,21.3,20.7,20.4,68,68,66,30.18,30.17,7,3,7,0.00
2013-11-15,35.9,35.2,35.1,24.6,24.5,24.3,65,65,64,30.15,30.15,0,0,0,0.00
2013-11-16,42.9,41.4,40.7,40.0,39.4,38.9,94,93,90,30.22,30.22,2,1,2,0.05
2013-11-17,63.2,58.2,51.0,60.2,54.4,41.4,97,87,56,30.01,29.50,3,1,16,0.24
2013-11-18,59.5,58.3,57.1,41.8,40.1,38.0,56,51,45,29.59,29.57,12,6,12,0.24
2013-11-19,41.2,40.3,39.9,25.9,25.6,25.0,57,55,54,29.97,29.93,13,7,13,0.00
2013-11-20,31.5,30.1,29.5,21.7,21.3,20.2,72,69,65,30.44,30.42,14,6,17,0.00
2013-11-21,50.8,46.6,41.7,47.4,39.9,29.2,94,78,59,30.44,30.02,2,0,9,0.03
2013-11-22,53.6,47.0,33.4,48.5,41.5,25.4,93,81,66,30.02,29.85,5,1,16,0.03
2013-11-23,35.4,34.6,34.0,25.6,25.4,24.9,71,69,66,30.00,30.00,9,5,9,0.00
2013-11-24,21.2,20.5,20.0,4.5,4.2,3.9,50,49,47,30.13,30.11,16,11,16,0.00
2013-11-25,21.4,20.4,20.0,14.9,14.5,14.0,78,78,76,30.39,30.39,4,1,8,0.00
2013-11-26,31.0,31.0,31.0,18.3,18.3,18.3,59,59,59,30.21,30.21,0,0,0,0.00
2013-11-27,44.0,44.0,43.9,43.2,43.2,43.1,97,97,97,29.36,29.36,1,1,1,0.94
2013-11-28,33.2,28.6,25.3,22.4,18.1,12.6,77,65,44,30.50,30.18,6,1,17,0.00
2013-11-29,34.8,24.2,16.0,22.7,16.7,12.2,86,74,54,30.66,30.48,3,0,11,0.00
2013-11-30,33.6,30.3,23.5,27.7,24.8,18.9,95,81,59,30.58,30.15,2,0,11,0.00
2013-12-1,24.9,24.4,24.2,23.6,23.2,23.0,95,95,95,30.15,30.15,0,0,0,0.00
2013-12-2,33.4,33.3,33.3,30.2,30.1,30.1,88,88,88,29.88,29.87,0,0,0,0.00
2013-12-3,46.7,45.3,44.4,37.5,37.0,36.5,76,72,68,29.83,29.81,4,1,4,0.00
2013-12-4,32.7,32.4,32.3,31.7,31.6,31.5,97,97,96,30.01,30.00,0,0,0,0.00
2013-12-5,57.8,53.1,44.4,57.2,52.3,43.1,98,97,94,29.91,29.77,3,1,12,0.15
2013-12-6,44.5,44.5,44.4,43.2,43.2,43.1,95,95,95,29.92,29.91,7,5,7,0.15
2013-12-7,35.2,34.5,34.1,28.7,27.3,25.0,80,75,70,30.27,30.25,10,4,10,0.02
2013-12-8,24.9,24.3,23.9,18.0,17.8,17.5,78,76,74,30.50,30.49,5,2,5,0.00
2013-12-9,31.6,31.6,31.6,30.8,30.8,30.8,97,97,97,30.02,30.00,4,1,4,0.09
2013-12-10,30.8,30.6,30.5,30.0,29.9,29.8,97,97,97,29.90,29.89,1,0,1,0.00
2013-12-11,29.1,26.8,24.8,17.8,16.9,16.2,71,66,61,30.25,30.17,7,4,7,0.00
2013-12-12,19.6,17.7,16.7,8.5,7.7,7.3,67,64,62,30.28,30.27,7,3,7,0.00
2013-12-13,26.5,24.3,23.4,13.7,12.8,12.1,63,61,59,30.12,30.10,9,4,9,0.00
2013-12-14,22.9,22.8,22.7,19.3,19.2,19.1,86,86,86,30.32,30.31,6,4,6,0.00
2013-12-15,36.9,35.7,33.6,31.2,27.9,24.2,88,73,67,29.70,29.55,16,5,18,0.03
2013-12-16,19.3,18.9,18.6,9.8,9.7,9.5,68,67,66,29.98,29.97,5,3,5,0.00
2013-12-17,20.8,18.8,17.6,18.8,16.6,15.2,93,91,89,29.95,29.88,6,2,6,0.00
2013-12-18,24.1,23.8,23.8,22.7,22.6,22.6,95,95,95,29.99,29.99,2,2,2,0.00
2013-12-19,35.4,29.1,23.3,24.8,22.1,18.8,86,75,65,30.04,29.97,4,1,4,0.00
2013-12-20,30.2,29.7,29.3,27.5,27.3,27.0,91,91,90,29.99,29.97,1,1,1,0.00
2013-12-21,41.5,40.5,39.5,39.3,38.0,37.3,92,91,87,29.90,29.89,4,1,4,0.00
2013-12-22,60.5,60.1,59.7,59.4,59.1,58.4,97,96,96,29.82,29.78,4,0,9,0.12
2013-12-23,36.5,36.5,36.5,30.0,30.0,30.0,77,77,77,30.07,30.07,6,6,6,0.00
2013-12-24,35.6,25.0,13.4,25.8,16.7,7.1,93,71,59,30.40,30.03,6,2,17,0.00
2013-12-25,15.1,13.8,13.4,8.3,7.8,7.5,78,77,74,30.43,30.40,5,2,5,0.00
2013-12-26,27.0,25.5,24.1,22.9,21.2,20.2,86,84,81,30.18,30.16,4,0,4,0.00
2013-12-27,31.4,30.9,30.4,23.0,22.7,22.5,73,72,70,30.25,30.25,4,1,4,0.00
2013-12-28,35.9,34.2,33.1,26.7,25.8,24.9,73,71,68,30.13,30.12,4,2,4,0.00
2013-12-29,37.3,36.8,36.1,36.5,35.6,33.9,97,96,91,29.74,29.39,9,4,9,0.84
2013-12-30,41.2,41.2,41.1,35.1,34.5,34.1,79,77,76,29.83,29.81,12,5,12,0.00
2013-12-31,30.2,24.4,18.1,25.6,15.5,9.4,87,69,57,30.31,29.97,6,2,20,0.00
2014-1-1,31.3,29.6,26.9,21.1,20.1,19.3,73,67,62,30.28,30.20,1,0,4,0.00
2014-1-2,21.7,19.3,16.6,17.6,15.8,14.4,91,86,83,29.90,29.72,10,3,14,0.00